Powrót do katalogu

ARIANE 42L+3 R/B

AktywnyGTO
NORAD 23671·ROCKET BODY·🇫🇷 France

Wystrzelony Sep 24, 1995 z Guiana Space Centre

Loading…

TLE

Starzejące sięSource: Space-Track

Epoka: Sep 14, 2026, 10:35 UTC

1 23671U 95049B   26257.44119442  .00000381  00000-0  12638-2 0  9991
2 23671   7.6697  26.2851 7210966 324.6044   4.2222  2.29733198254449

Śledź ARIANE 42L+3 R/B w czasie rzeczywistym z AllMySat

Download on the App Store